FW2617 Weather Reports


time (UTC)temp
C
wind
direction
speed
KPH
gust
KPH
rain 1hr
cm
rain 24hr
cm
rain mn
cm
humidity
%
barometer
mb
20260902014504 33 0 0.0 0.0 0.00 0.00 0.00 48 1009.8
20260902013603 33 114 0.0 3.2 0.00 0.00 0.00 48 1009.7
20260902012704 33 112 0.0 3.2 0.00 0.00 0.00 48 1009.7
20260902011804 33 108 0.0 3.2 0.00 0.00 0.00 47 1009.6
20260902010925 33 102 1.6 4.8 0.00 0.00 0.00 47 1009.5
20260902010004 34 91 1.6 4.8 0.00 0.00 0.00 46 1009.4
20260902005404 34 85 1.6 4.8 0.00 0.00 0.00 45 1009.4
20260902004504 35 85 1.6 4.8 0.00 0.00 0.00 45 1009.4
20260902003604 35 87 1.6 6.4 0.00 0.00 0.00 44 1009.4
20260902002704 35 88 1.6 6.4 0.00 0.00 0.00 43 1009.4
20260902001804 35 79 1.6 8.0 0.00 0.00 0.00 42 1009.4
20260902000904 36 82 3.2 6.4 0.00 0.00 0.00 42 1009.6
20260902000025 36 75 3.2 9.7 0.00 0.00 0.00 41 1009.5
20260901235404 36 67 6.4 16.1 0.00 0.00 0.00 40 1009.5
20260901234504 37 70 4.8 17.7 0.00 0.00 0.00 39 1009.6
20260901233604 37 77 4.8 12.9 0.00 0.00 0.00 39 1009.6
20260901232704 37 80 3.2 9.7 0.00 0.00 0.00 39 1009.7
20260901231804 37 70 6.4 22.5 0.00 0.00 0.00 38 1009.6
20260901230904 38 69 4.8 12.9 0.00 0.00 0.00 38 1009.6
20260901230004 38 130 4.8 12.9 0.00 0.00 0.00 38 1009.7
20260901225404 38 125 3.2 9.7 0.00 0.00 0.00 38 1009.7
20260901224504 37 126 1.6 6.4 0.00 0.00 0.00 39 1009.7
20260901223604 36 84 1.6 6.4 0.00 0.00 0.00 41 1009.7
20260901222704 36 100 1.6 4.8 0.00 0.00 0.00 41 1009.8
20260901221804 36 139 1.6 8.0 0.00 0.00 0.00 41 1009.8
20260901220905 36 147 1.6 6.4 0.00 0.00 0.00 41 1009.9
20260901220004 36 120 1.6 9.7 0.00 0.00 0.00 40 1009.9
20260901215425 36 91 1.6 4.8 0.00 0.00 0.00 40 1010.0
20260901214525 36 114 3.2 6.4 0.00 0.00 0.00 40 1010.0
20260901213604 37 101 4.8 11.3 0.00 0.00 0.00 38 1010.1
20260901212725 38 93 4.8 16.1 0.00 0.00 0.00 37 1010.0
20260901211804 39 83 4.8 19.3 0.00 0.00 0.00 37 1010.1
20260901210904 38 131 3.2 9.7 0.00 0.00 0.00 38 1010.3
20260901210025 37 132 3.2 16.1 0.00 0.00 0.00 37 1010.4
20260901205404 38 107 3.2 11.3 0.00 0.00 0.00 36 1010.4
20260901204525 38 107 3.2 8.0 0.00 0.00 0.00 38 1010.4
20260901203604 39 105 3.2 9.7 0.00 0.00 0.00 37 1010.5
20260901202724 39 88 3.2 11.3 0.00 0.00 0.00 37 1010.6
20260901201804 38 130 3.2 11.3 0.00 0.00 0.00 37 1010.8
20260901200904 37 160 4.8 11.3 0.00 0.00 0.00 40 1010.9
20260901200004 37 150 6.4 14.5 0.00 0.00 0.00 37 1011.0
20260901195425 38 144 3.2 14.5 0.00 0.00 0.00 37 1011.1
20260901194504 38 151 3.2 6.4 0.00 0.00 0.00 39 1011.1
20260901193604 38 119 3.2 14.5 0.00 0.00 0.00 41 1011.3
20260901192704 36 160 3.2 14.5 0.00 0.00 0.00 42 1011.4
20260901191825 36 177 4.8 14.5 0.00 0.00 0.00 43 1011.5
20260901190904 36 171 4.8 12.9 0.00 0.00 0.00 43 1011.6
20260901190025 36 156 4.8 11.3 0.00 0.00 0.00 42 1011.7
20260901185404 37 127 3.2 14.5 0.00 0.00 0.00 41 1011.8
20260901184504 37 65 4.8 14.5 0.00 0.00 0.00 43 1011.9
20260901183604 36 81 3.2 8.0 0.00 0.00 0.00 43 1012.1
20260901182704 36 120 1.6 8.0 0.00 0.00 0.00 46 1012.3
20260901181803 36 138 3.2 6.4 0.00 0.00 0.00 43 1012.6
20260901180904 36 169 6.4 17.7 0.00 0.00 0.00 43 1012.8
20260901180004 37 176 4.8 17.7 0.00 0.00 0.00 41 1012.9
20260901175404 37 154 3.2 9.7 0.00 0.00 0.00 42 1012.9
20260901174525 36 128 4.8 14.5 0.00 0.00 0.00 44 1013.0
20260901173604 36 178 4.8 14.5 0.00 0.00 0.00 44 1013.1
20260901172704 36 102 3.2 8.0 0.00 0.00 0.00 46 1013.3
20260901171825 36 152 4.8 16.1 0.00 0.00 0.00 47 1013.3
20260901170904 35 74 1.6 6.4 0.00 0.00 0.00 47 1013.4
20260901170004 35 129 4.8 9.7 0.00 0.00 0.00 47 1013.5
20260901165425 35 136 4.8 11.3 0.00 0.00 0.00 47 1013.6
20260901164504 35 143 3.2 8.0 0.00 0.00 0.00 49 1013.7
20260901163625 34 190 4.8 12.9 0.00 0.00 0.00 51 1013.8
20260901162704 33 176 6.4 14.5 0.00 0.00 0.00 51 1013.9
20260901161804 33 199 6.4 14.5 0.00 0.00 0.00 53 1013.9
20260901160903 33 198 3.2 11.3 0.00 0.00 0.00 55 1013.9
20260901160004 32 160 4.8 16.1 0.00 0.00 0.00 56 1013.9
20260901155403 32 166 4.8 16.1 0.00 0.00 0.00 57 1013.9
20260901154504 31 195 4.8 9.7 0.00 0.00 0.00 58 1013.9
20260901153604 31 198 6.4 14.5 0.00 0.00 0.00 59 1013.9
20260901152704 31 177 4.8 14.5 0.00 0.00 0.00 60 1013.8
20260901151825 31 170 4.8 12.9 0.00 0.00 0.00 61 1013.8
20260901150904 30 173 4.8 12.9 0.00 0.00 0.00 63 1013.9
20260901150004 30 174 4.8 11.3 0.00 0.00 0.00 66 1013.9
20260901145425 29 194 3.2 9.7 0.00 0.00 0.00 68 1013.9
20260901144504 29 201 4.8 9.7 0.00 0.00 0.00 69 1014.0
20260901143625 28 186 4.8 9.7 0.00 0.00 0.00 69 1014.0
20260901142704 28 187 3.2 6.4 0.00 0.00 0.00 72 1014.0
20260901141824 28 183 3.2 9.7 0.00 0.00 0.00 72 1014.1
20260901140904 28 168 3.2 9.7 0.00 0.00 0.00 74 1014.2
20260901140004 27 174 4.8 9.7 0.00 0.00 0.00 75 1014.1
20260901135403 27 173 3.2 9.7 0.00 0.00 0.00 75 1014.1
20260901134504 26 162 1.6 6.4 0.00 0.00 0.00 77 1014.2
20260901133604 26 166 3.2 8.0 0.00 0.00 0.00 77 1014.2
20260901132704 26 166 3.2 9.7 0.00 0.00 0.00 77 1014.1
20260901131825 26 166 1.6 9.7 0.00 0.00 0.00 77 1014.0
20260901130904 25 161 1.6 6.4 0.00 0.00 0.00 77 1014.0
20260901130004 25 169 0.0 4.8 0.00 0.00 0.00 77 1014.0
20260901125404 25 164 0.0 6.4 0.00 0.00 0.00 77 1013.9
20260901124525 25 0 0.0 0.0 0.00 0.00 0.00 78 1013.8
20260901123604 25 148 0.0 3.2 0.00 0.00 0.00 78 1013.6
20260901122704 25 148 0.0 3.2 0.00 0.00 0.00 78 1013.6
20260901121804 25 0 0.0 0.0 0.00 0.00 0.00 77 1013.3
20260901120904 25 0 0.0 0.0 0.00 0.00 0.00 77 1013.2
20260901120004 25 159 0.0 6.4 0.00 0.00 0.00 77 1013.1
20260901115403 25 156 1.6 6.4 0.00 0.00 0.00 76 1013.1
20260901114504 25 164 3.2 8.0 0.00 0.00 0.00 76 1013.0
20260901113604 25 164 1.6 6.4 0.00 0.00 0.00 76 1013.1
20260901112704 25 0 0.0 0.0 0.00 0.00 0.00 76 1013.2
20260901111804 25 0 0.0 0.0 0.00 0.00 0.00 76 1013.2
20260901110925 25 0 0.0 0.0 0.00 0.00 0.00 75 1013.0
20260901110024 25 173 0.0 3.2 0.00 0.00 0.00 75 1012.9
20260901105404 25 173 0.0 3.2 0.00 0.00 0.00 75 1012.8
20260901104525 25 176 1.6 3.2 0.00 0.00 0.00 74 1012.8
20260901103625 25 165 0.0 3.2 0.00 0.00 0.00 74 1012.8
20260901102725 26 177 0.0 4.8 0.00 0.00 0.00 73 1012.9
20260901101804 26 0 0.0 0.0 0.00 0.00 0.00 72 1012.8
20260901100903 26 0 0.0 0.0 0.00 0.00 0.00 72 1012.8
20260901100004 26 0 0.0 0.0 0.00 0.00 0.00 71 1012.8
20260901095404 26 0 0.0 0.0 0.00 0.00 0.00 71 1012.8
20260901094524 26 0 0.0 0.0 0.00 0.00 0.00 71 1012.9
20260901093603 26 180 0.0 4.8 0.00 0.00 0.00 70 1013.0
20260901092704 26 191 1.6 4.8 0.00 0.00 0.00 70 1013.0
20260901091804 26 195 1.6 4.8 0.00 0.00 0.00 69 1013.1
20260901090904 26 182 1.6 6.4 0.00 0.00 0.00 68 1013.1
20260901090004 26 0 0.0 0.0 0.00 0.00 0.00 67 1013.0
20260901085404 26 0 0.0 0.0 0.00 0.00 0.00 67 1012.9
20260901084525 26 203 0.0 3.2 0.00 0.00 0.00 66 1012.9
20260901083604 26 190 1.6 3.2 0.00 0.00 0.00 66 1012.9
20260901082704 26 169 1.6 6.4 0.00 0.00 0.00 66 1013.0
20260901081804 26 167 1.6 8.0 0.00 0.00 0.00 65 1013.0
20260901080925 26 166 1.6 8.0 0.00 0.00 0.00 65 1012.9
20260901080004 26 173 0.0 4.8 0.00 0.00 0.00 63 1013.0
20260901075403 26 165 0.0 6.4 0.00 0.00 0.00 62 1013.0
20260901074503 27 0 0.0 0.0 0.00 0.00 0.00 61 1013.1
20260901073604 27 150 1.6 4.8 0.00 0.00 0.00 61 1012.9
20260901072704 27 161 1.6 6.4 0.00 0.00 0.00 61 1012.8
20260901071804 27 154 3.2 8.0 0.00 0.00 0.00 60 1012.8
20260901070904 27 181 3.2 9.7 0.00 0.00 0.00 59 1012.7
20260901070004 27 169 3.2 9.7 0.00 0.00 0.00 58 1012.7
20260901065404 27 166 4.8 9.7 0.00 0.00 0.00 58 1012.6
20260901064503 27 163 3.2 9.7 0.00 0.00 0.00 57 1012.6
20260901063603 27 149 1.6 4.8 0.00 0.00 0.00 56 1012.4
20260901062703 27 152 1.6 6.4 0.00 0.00 0.00 55 1012.3
20260901061804 27 152 3.2 8.0 0.00 0.00 0.00 54 1012.3
20260901060925 27 151 3.2 9.7 0.00 0.00 0.00 54 1012.2
20260901060024 28 149 1.6 6.4 0.00 0.00 0.00 53 1012.1
20260901055404 28 149 1.6 8.0 0.00 0.00 0.00 52 1011.9
20260901054504 28 151 1.6 6.4 0.00 0.00 0.00 52 1011.8
20260901053604 28 158 0.0 1.6 0.00 0.00 0.00 52 1011.8
20260901052704 28 145 1.6 6.4 0.00 0.00 0.00 52 1011.7
20260901051804 28 0 0.0 0.0 0.00 0.00 0.00 52 1011.5
20260901050903 28 0 0.0 0.0 0.00 0.00 0.00 51 1011.3
20260901050004 28 0 0.0 0.0 0.00 0.00 0.00 51 1011.4
20260901045404 28 0 0.0 0.0 0.00 0.00 0.00 51 1011.4
20260901044505 28 0 0.0 0.0 0.00 0.00 0.00 50 1011.3
20260901043604 28 0 0.0 0.0 0.00 0.00 0.00 51 1011.4
20260901042703 29 0 0.0 0.0 0.00 0.00 0.00 50 1011.4
20260901041804 29 0 0.0 0.0 0.00 0.00 0.00 49 1011.3
20260901040904 30 0 0.0 0.0 0.00 0.00 0.00 49 1011.4
20260901040004 30 0 0.0 0.0 0.00 0.00 0.00 49 1011.4
20260901035404 30 0 0.0 0.0 0.00 0.00 0.00 49 1011.4
20260901034504 30 0 0.0 0.0 0.00 0.00 0.00 49 1011.5
20260901033603 30 0 0.0 0.0 0.00 0.00 0.00 46 1011.3
20260901032704 31 157 1.6 4.8 0.00 0.00 0.00 46 1011.3
20260901031803 31 153 0.0 3.2 0.00 0.00 0.00 46 1011.3
20260901030925 31 155 1.6 4.8 0.00 0.00 0.00 45 1011.3
20260901030003 31 157 0.0 3.2 0.00 0.00 0.00 45 1011.2
20260901025404 31 0 0.0 0.0 0.00 0.00 0.00 45 1011.1
20260901024504 31 0 0.0 0.0 0.00 0.00 0.00 44 1011.0
20260901023624 31 153 0.0 3.2 0.00 0.00 0.00 44 1010.9
20260901022704 31 150 1.6 3.2 0.00 0.00 0.00 43 1010.8
20260901021804 32 150 0.0 3.2 0.00 0.00 0.00 43 1010.7
20260901020904 32 151 1.6 3.2 0.00 0.00 0.00 42 1010.6
20260901020025 32 150 1.6 3.2 0.00 0.00 0.00 42 1010.5
20260901015404 32 0 0.0 0.0 0.00 0.00 0.00 41 1010.4